Time,TemperatureF,DewpointF,PressureIn,WindDirection,WindDirectionDegrees,WindSpeedMPH,WindSpeedGustMPH,Humidity,HourlyPrecipIn,Conditions,Clouds,dailyrainin,SoftwareType,DateUTC
2013-04-10 00:03:00,34.0,-99.9,-100.00,North,-999,-999.0,-999.0,-999,-99.99,,,0.00,,2013-04-10 07:03:00,
2013-04-10 00:12:00,34.0,-99.9,-100.00,North,-999,-999.0,-999.0,-999,-99.99,,,0.00,,2013-04-10 07:12:00,
2013-04-10 03:03:00,113.0,-99.9,-100.00,North,-999,-999.0,-999.0,-999,-99.99,,,0.00,,2013-04-10 10:03:00,
2013-04-10 03:23:00,32.0,-99.9,-100.00,North,-999,-999.0,-999.0,-999,-99.99,,,0.00,,2013-04-10 10:23:00,
2013-04-10 03:33:00,33.0,-99.9,-100.00,North,-999,-999.0,-999.0,-999,-99.99,,,0.00,,2013-04-10 10:33:00,
2013-04-10 03:43:00,33.0,-99.9,-100.00,North,-999,-999.0,-999.0,-999,-99.99,,,0.00,,2013-04-10 10:43:00,
2013-04-10 03:53:00,32.0,-99.9,-100.00,North,-999,-999.0,-999.0,-999,-99.99,,,-99.99,,2013-04-10 10:53:00,
2013-04-10 04:03:00,33.0,-99.9,-100.00,North,-999,-999.0,-999.0,-999,-99.99,,,0.00,,2013-04-10 11:03:00,
2013-04-10 04:12:00,33.0,-99.9,-100.00,North,-999,-999.0,-999.0,-999,-99.99,,,0.00,,2013-04-10 11:12:00,
2013-04-10 04:22:00,35.0,-99.9,-100.00,North,-999,-999.0,-999.0,-999,-99.99,,,-99.99,,2013-04-10 11:22:00,
2013-04-10 04:33:00,33.0,-99.9,-100.00,North,-999,-999.0,-999.0,-999,-99.99,,,-99.99,,2013-04-10 11:33:00,
2013-04-10 04:53:00,33.0,-99.9,-100.00,North,-999,-999.0,-999.0,-999,-99.99,,,-99.99,,2013-04-10 11:53:00,
2013-04-10 05:03:00,33.0,-99.9,-100.00,North,-999,-999.0,-999.0,-999,-99.99,,,-99.99,,2013-04-10 12:03:00,
2013-04-10 05:12:00,33.0,-99.9,-100.00,North,-999,-999.0,-999.0,-999,-99.99,,,-99.99,,2013-04-10 12:12:00,
2013-04-10 05:33:00,32.0,-99.9,-100.00,North,-999,-999.0,-999.0,-999,-99.99,,,0.00,,2013-04-10 12:33:00,
2013-04-10 05:43:00,32.0,-99.9,-100.00,North,-999,-999.0,-999.0,-999,-99.99,,,0.00,,2013-04-10 12:43:00,
2013-04-10 05:52:00,34.0,-99.9,-100.00,North,-999,-999.0,-999.0,-999,-99.99,,,-99.99,,2013-04-10 12:52:00,
2013-04-10 06:24:00,58.0,-99.9,-100.00,North,-999,-999.0,-999.0,-999,-99.99,,,0.06,,2013-04-10 13:24:00,
2013-04-10 08:03:00,51.0,-99.9,-100.00,North,-999,-999.0,-999.0,-999,-99.99,,,-99.99,,2013-04-10 15:03:00,
2013-04-10 09:53:00,51.0,-99.9,-100.00,North,-999,-999.0,-999.0,-999,-99.99,,,-99.99,,2013-04-10 16:53:00,
2013-04-10 10:03:00,52.0,-99.9,-100.00,North,-999,-999.0,-999.0,-999,-99.99,,,-99.99,,2013-04-10 17:03:00,
2013-04-10 10:23:00,52.0,-99.9,-100.00,North,-999,-999.0,-999.0,-999,-99.99,,,0.00,,2013-04-10 17:23:00,
2013-04-10 10:34:00,55.0,-99.9,-100.00,North,-999,-999.0,-999.0,-999,-99.99,,,0.02,,2013-04-10 17:34:00,
2013-04-10 10:43:00,55.0,-99.9,-100.00,North,-999,-999.0,-999.0,-999,-99.99,,,0.02,,2013-04-10 17:43:00,
2013-04-10 10:53:00,55.0,-99.9,-100.00,North,-999,-999.0,-999.0,-999,-99.99,,,0.02,,2013-04-10 17:53:00,
2013-04-10 11:03:00,55.0,-99.9,-100.00,North,-999,-999.0,-999.0,-999,-99.99,,,0.02,,2013-04-10 18:03:00,
2013-04-10 11:23:00,55.0,-99.9,-100.00,North,-999,-999.0,-999.0,-999,-99.99,,,-99.99,,2013-04-10 18:23:00,
2013-04-10 11:33:00,58.0,-99.9,-100.00,North,-999,-999.0,-999.0,-999,-99.99,,,0.00,,2013-04-10 18:33:00,
2013-04-10 11:43:00,58.0,-99.9,-100.00,North,-999,-999.0,-999.0,-999,-99.99,,,0.00,,2013-04-10 18:43:00,
2013-04-10 11:53:00,58.0,-99.9,-100.00,North,-999,-999.0,-999.0,-999,-99.99,,,0.00,,2013-04-10 18:53:00,
2013-04-10 12:22:00,59.0,-99.9,-100.00,North,-999,-999.0,-999.0,-999,-99.99,,,-99.99,,2013-04-10 19:22:00,
2013-04-10 12:53:00,59.0,-99.9,-100.00,North,-999,-999.0,-999.0,-999,-99.99,,,-99.99,,2013-04-10 19:53:00,
2013-04-10 13:03:00,60.0,-99.9,-100.00,North,-999,-999.0,-999.0,-999,-99.99,,,0.00,,2013-04-10 20:03:00,
2013-04-10 13:53:00,62.0,-99.9,-100.00,North,-999,-999.0,-999.0,-999,-99.99,,,-99.99,,2013-04-10 20:53:00,
2013-04-10 14:03:00,62.0,-99.9,-100.00,North,-999,-999.0,-999.0,-999,-99.99,,,-99.99,,2013-04-10 21:03:00,
2013-04-10 14:13:00,62.0,-99.9,-100.00,North,-999,-999.0,-999.0,-999,-99.99,,,-99.99,,2013-04-10 21:13:00,
2013-04-10 14:22:00,62.0,-99.9,-100.00,North,-999,-999.0,-999.0,-999,-99.99,,,-99.99,,2013-04-10 21:22:00,
2013-04-10 14:53:00,73.0,-99.9,-100.00,North,-999,-999.0,-999.0,-999,-99.99,,,-99.99,,2013-04-10 21:53:00,
2013-04-10 15:23:00,67.0,-99.9,-100.00,North,-999,-999.0,-999.0,-999,-99.99,,,-99.99,,2013-04-10 22:23:00,
2013-04-10 15:34:00,66.0,-99.9,-100.00,North,-999,-999.0,-999.0,-999,-99.99,,,0.00,,2013-04-10 22:34:00,
2013-04-10 15:43:00,66.0,-99.9,-100.00,North,-999,-999.0,-999.0,-999,-99.99,,,0.00,,2013-04-10 22:43:00,
2013-04-10 15:53:00,66.0,-99.9,-100.00,North,-999,-999.0,-999.0,-999,-99.99,,,-99.99,,2013-04-10 22:53:00,
2013-04-10 16:03:00,66.0,-99.9,-100.00,North,-999,-999.0,-999.0,-999,-99.99,,,-99.99,,2013-04-10 23:03:00,
2013-04-10 16:13:00,66.0,-99.9,-100.00,North,-999,-999.0,-999.0,-999,-99.99,,,-99.99,,2013-04-10 23:13:00,
2013-04-10 16:23:00,68.0,-99.9,-100.00,North,-999,-999.0,-999.0,-999,-99.99,,,2.02,,2013-04-10 23:23:00,
2013-04-10 16:33:00,67.0,-99.9,-100.00,North,-999,-999.0,-999.0,-999,-99.99,,,0.00,,2013-04-10 23:33:00,
2013-04-10 16:43:00,67.0,-99.9,-100.00,North,-999,-999.0,-999.0,-999,-99.99,,,0.00,,2013-04-10 23:43:00,
2013-04-10 16:53:00,66.0,-99.9,-100.00,North,-999,-999.0,-999.0,-999,-99.99,,,0.00,,2013-04-10 23:53:00,
2013-04-10 17:02:00,67.0,-99.9,-100.00,North,-999,-999.0,-999.0,-999,-99.99,,,0.00,,2013-04-11 00:02:00,
2013-04-10 17:13:00,67.0,-99.9,-100.00,North,-999,-999.0,-999.0,-999,-99.99,,,0.00,,2013-04-11 00:13:00,
2013-04-10 17:23:00,66.0,-99.9,-100.00,North,-999,-999.0,-999.0,-999,-99.99,,,-99.99,,2013-04-11 00:23:00,
2013-04-10 17:32:00,63.0,-99.9,-100.00,North,-999,-999.0,-999.0,-999,-99.99,,,0.00,,2013-04-11 00:32:00,
2013-04-10 17:43:00,63.0,-99.9,-100.00,North,-999,-999.0,-999.0,-999,-99.99,,,0.00,,2013-04-11 00:43:00,
2013-04-10 17:53:00,61.0,-99.9,-100.00,North,-999,-999.0,-999.0,-999,-99.99,,,0.00,,2013-04-11 00:53:00,
2013-04-10 18:02:00,63.0,-99.9,-100.00,North,-999,-999.0,-999.0,-999,-99.99,,,-99.99,,2013-04-11 01:02:00,
2013-04-10 18:13:00,63.0,-99.9,-100.00,North,-999,-999.0,-999.0,-999,-99.99,,,-99.99,,2013-04-11 01:13:00,
2013-04-10 18:22:00,63.0,-99.9,-100.00,North,-999,-999.0,-999.0,-999,-99.99,,,-99.99,,2013-04-11 01:22:00,
2013-04-10 18:53:00,63.0,-99.9,-100.00,North,-999,-999.0,-999.0,-999,-99.99,,,0.00,,2013-04-11 01:53:00,
2013-04-10 19:03:00,62.0,-99.9,-100.00,North,-999,-999.0,-999.0,-999,-99.99,,,-99.99,,2013-04-11 02:03:00,
2013-04-10 19:13:00,62.0,-99.9,-100.00,North,-999,-999.0,-999.0,-999,-99.99,,,-99.99,,2013-04-11 02:13:00,
2013-04-10 19:22:00,60.0,-99.9,-100.00,North,-999,-999.0,-999.0,-999,-99.99,,,-99.99,,2013-04-11 02:22:00,
2013-04-10 19:32:00,59.0,-99.9,-100.00,North,-999,-999.0,-999.0,-999,-99.99,,,-99.99,,2013-04-11 02:32:00,
2013-04-10 19:42:00,59.0,-99.9,-100.00,North,-999,-999.0,-999.0,-999,-99.99,,,-99.99,,2013-04-11 02:42:00,
2013-04-10 19:53:00,58.0,-99.9,-100.00,North,-999,-999.0,-999.0,-999,-99.99,,,-99.99,,2013-04-11 02:53:00,
2013-04-10 20:03:00,57.0,-99.9,-100.00,North,-999,-999.0,-999.0,-999,-99.99,,,-99.99,,2013-04-11 03:03:00,
2013-04-10 20:12:00,57.0,-99.9,-100.00,North,-999,-999.0,-999.0,-999,-99.99,,,-99.99,,2013-04-11 03:12:00,
2013-04-10 20:23:00,58.0,-99.9,-100.00,North,-999,-999.0,-999.0,-999,-99.99,,,-99.99,,2013-04-11 03:23:00,
2013-04-10 20:33:00,56.0,-99.9,-100.00,North,-999,-999.0,-999.0,-999,-99.99,,,0.00,,2013-04-11 03:33:00,
2013-04-10 20:43:00,56.0,-99.9,-100.00,North,-999,-999.0,-999.0,-999,-99.99,,,0.00,,2013-04-11 03:43:00,
2013-04-10 20:54:00,55.0,-99.9,-100.00,North,-999,-999.0,-999.0,-999,-99.99,,,0.00,,2013-04-11 03:54:00,
2013-04-10 21:03:00,54.0,-99.9,-100.00,North,-999,-999.0,-999.0,-999,-99.99,,,-99.99,,2013-04-11 04:03:00,
2013-04-10 21:13:00,54.0,-99.9,-100.00,North,-999,-999.0,-999.0,-999,-99.99,,,-99.99,,2013-04-11 04:13:00,
2013-04-10 21:23:00,53.0,-99.9,-100.00,North,-999,-999.0,-999.0,-999,-99.99,,,-99.99,,2013-04-11 04:23:00,
2013-04-10 21:34:00,53.0,-99.9,-100.00,North,-999,-999.0,-999.0,-999,-99.99,,,-99.99,,2013-04-11 04:34:00,
2013-04-10 21:43:00,53.0,-99.9,-100.00,North,-999,-999.0,-999.0,-999,-99.99,,,-99.99,,2013-04-11 04:43:00,
2013-04-10 21:53:00,55.0,-99.9,-100.00,North,-999,-999.0,-999.0,-999,-99.99,,,-99.99,,2013-04-11 04:53:00,
2013-04-10 22:03:00,52.0,-99.9,-100.00,North,-999,-999.0,-999.0,-999,-99.99,,,-99.99,,2013-04-11 05:03:00,
2013-04-10 22:13:00,52.0,-99.9,-100.00,North,-999,-999.0,-999.0,-999,-99.99,,,-99.99,,2013-04-11 05:13:00,
2013-04-10 22:23:00,51.0,-99.9,-100.00,North,-999,-999.0,-999.0,-999,-99.99,,,-99.99,,2013-04-11 05:23:00,
2013-04-10 22:32:00,50.0,-99.9,-100.00,North,-999,-999.0,-999.0,-999,-99.99,,,0.00,,2013-04-11 05:32:00,
2013-04-10 22:42:00,50.0,-99.9,-100.00,North,-999,-999.0,-999.0,-999,-99.99,,,0.00,,2013-04-11 05:42:00,
2013-04-10 22:53:00,48.0,-99.9,-100.00,North,-999,-999.0,-999.0,-999,-99.99,,,0.00,,2013-04-11 05:53:00,
2013-04-10 23:02:00,49.0,-99.9,-100.00,North,-999,-999.0,-999.0,-999,-99.99,,,0.00,,2013-04-11 06:02:00,
2013-04-10 23:12:00,49.0,-99.9,-100.00,North,-999,-999.0,-999.0,-999,-99.99,,,0.00,,2013-04-11 06:12:00,
2013-04-10 23:22:00,49.0,-99.9,-100.00,North,-999,-999.0,-999.0,-999,-99.99,,,0.00,,2013-04-11 06:22:00,
2013-04-10 23:32:00,49.0,-99.9,-100.00,North,-999,-999.0,-999.0,-999,-99.99,,,0.00,,2013-04-11 06:32:00,